www.pogodaiklimat.ru

Погода и климат >> Архив погоды >> Индия >> Телингана >> Хайдарабад


ПОГОДА в Хайдарабаде

  • Прогноз погоды в Хайдарабаде
  • Монитор погоды в Хайдарабаде

АРХИВ ПОГОДЫ в Хайдарабаде

Время (UTC), дата Ветер
(напр.,м/с)
 
Видим.   Явления Облачность Т
(С)
Тd
(С)
f
(%)
Тe
(С)
Тes
(С)
Комфортность P
(гПа)
Po
(гПа)
Тmin
(С)
Tmax
(С)
R
(мм)
R24
(мм)
S
(см)
18 18.05 штиль 0 4000 м 5/1 600 м
[Sc Ac trans]
+31.8 +13.1 32 +33 +33 жарко 1004.9 946.3
21 18.05 ЮВ 1 4000 м 4/0
[Ac trans]
+30.6 +15.6 40 +33 +33 душно 1004.3 945.5
00 19.05 нст 1 4000 м 8/3 600 м
[Sc Ac trans Ci fib]
+29.6 +16.7 46 +33 +33 душно 1005.1 946.1
03 19.05 нст 1 10 км 6/3 600 м
[Sc Ac trans Ci fib]
+35.0 +13.0 27 +35 +41 очень
жарко
1006.6 948.5 +29.8 +41.8
06 19.05 нст 1 10 км 4/0
[Ci fib]
+39.6 +10.9 18 +38 +61 опасность
солнечного
удара
1005.0 947.8
09 19.05 ЮВ 2 10 км 5/5 600 м
[Cu Sc]
+42.2 +10.8 16 +41 +50 опасность
перегрева
1001.9 945.4
12 19.05 СВ 2 10 км 6/6 600 м
[Cu Sc]
+41.0 +11.3 17 +40 +41 очень
жарко
1001.5 944.7 +42.7
15 19.05 штиль 0 4000 м 3/3 600 м
[Sc]
+36.0 +18.2 35 +40 +40 очень
душно
1005.1 947.1
18 19.05 Ю 2 4000 м 3/0
[Ci fib]
+32.4 +17.2 40 +36 +36 очень
душно
1007.2 948.7
21 19.05 Ю 2 4000 м мгла 3/0
[Ci fib]
+31.0 +18.0 46 +35 +35 очень
душно
1005.6 946.8
00 20.05 штиль 0 4000 м мгла 4/0
[Ci fib]
+30.6 +19.0 50 +36 +36 очень
душно
1006.2 947.3
03 20.05 штиль 0 10 км мгла 3/0
[Ci fib]
+33.7 +22.5 52 +43 +53 опасность
перегрева
1008.3 949.9 +30.5 +42.7
06 20.05 Ю 2 10 км 4/0
[Ci fib]
+39.0 +19.6 33 +44 +65 опасность
перегрева
1006.2 948.8
09 20.05 ЮВ 2 10 км 6/5 600 м
[Cu Sc Ci fib]
+41.0 +15.2 22 +42 +50 опасность
перегрева
1002.9 946.0
12 20.05 ЮВ 2 10 км 8/6 600 м
[Cu Sc Ci fib]
+38.8 +13.9 23 +39 +40 очень
жарко
1001.7 944.6 +42.3
15 20.05 нст 1 10 км 5/3 600 м
[Sc Ac trans]
+35.8 +15.5 30 +38 +38 очень
душно
1004.8 947.0
18 20.05 ЮВ 2 4000 м мгла {гроза, дождь} 5/3 600 м
[Sc Ac trans]
+33.2 +19.7 45 +39 +39 очень
душно
1005.7 947.4 1
21 20.05 нст 1 4000 м мгла {гроза, дождь} 4/1 600 м
[Sc Ac trans]
+32.4 +22.8 57 +42 +42 опасность
перегрева
1004.6 946.2 1
00 21.05 нст 1 4000 м мгла 4/0
[Ci fib]
+30.2 +22.2 62 +39 +39 очень
душно
1005.5 946.7 1
03 21.05 нст 1 10 км 3/0
[Ci fib]
+33.8 +20.5 46 +41 +49 опасность
перегрева
1005.6 947.3 +30.3 +42.3 1
06 21.05 ЮЗ 1 10 км 5/1 600 м
[Sc Ac trans]
+39.4 +17.5 28 +42 +59 опасность
перегрева
1005.3 948.1
09 21.05 ЮЗ 1 10 км 5/4 600 м
[Sc Ci fib]
+41.8 +15.6 22 +43 +54 опасность
перегрева
1002.6 945.9
12 21.05 ЮВ 2 10 км 5/4 600 м
[Sc Ci fib]
+39.6 +15.2 24 +41 +42 опасность
перегрева
1001.6 944.6 +42.0
15 21.05 З 10 2000 м гроза с градом 8/5 600 м
[Cb cap Ci fib]
+22.0 +15.2 65 +26 +26 душно 1008.6 947.8 18
18 21.05 штиль 0 4000 м мгла {гроза, дождь} 8/3 600 м
[Sc Ac trans Ci fib]
+28.4 +17.0 50 +32 +32 душно 1007.7 948.4 21
21 21.05 З 2 10 км мгла 9/4 600 м
[Sc Ac trans Ci fib]
+30.0 +17.2 46 +34 +34 очень
душно
1005.9 946.9 21
00 22.05 штиль 0 10 км мгла 9/3 600 м
[Sc Ac trans Ci fib]
+28.4 +18.8 56 +34 +34 очень
душно
1006.5 947.2 21
03 22.05 нст 1 4000 м мгла 4/0
[Ac trans]
+31.4 +19.6 50 +37 +45 очень
душно
1007.1 948.4 +21.8 +42.0 21
06 22.05 штиль 0 10 км ясно +37.4 +18.6 33 +41 +70 опасность
перегрева
1005.1 947.5
09 22.05 нст 1 10 км 4/4 600 м
[Cu Sc]
+39.8 +16.8 26 +42 +54 опасность
перегрева
1001.8 944.8
12 22.05 нст 1 10 км 5/4 600 м
[Cu Sc Ac trans]
+39.2 +20.3 34 +45 +46 опасность
перегрева
1000.7 943.7 +40.7
15 22.05 ЮВ 3 4000 м гроза без осадков 5/4 600 м
[Cb cap Ci fib]
+35.2 +17.9 36 +39 +39 очень
душно
1004.4 946.6
18 22.05 ЮВ 2 4000 м {гроза, морось} 4/3 600 м
[Sc Ac trans]
+32.8 +22.0 53 +41 +41 опасность
перегрева
1005.0 946.6 0.0
21 22.05 штиль 0 4000 м мгла 5/1 600 м
[Sc Ac trans Ci fib]
+31.6 +23.7 63 +43 +43 опасность
перегрева
1004.0 945.4 0.0
00 23.05 штиль 0 4000 м мгла 8/3 600 м
[Sc Ac trans Ci fib]
+30.6 +25.0 72 +44 +44 опасность
перегрева
1004.9 946.1 0.0
03 23.05 ЮЗ 2 4000 м мгла 8/4 600 м
[Sc Ac trans Ci fib]
+33.4 +21.3 49 +41 +44 опасность
перегрева
1006.0 947.7 +30.0 +40.7 0.0
06 23.05 ЮЗ 2 10 км 6/0
[Ac trans Ci fib]
+37.8 +19.9 35 +43 +61 опасность
перегрева
1004.4 946.9
09 23.05 ЮВ 2 10 км 6/4 600 м
[Sc Ac trans]
+40.4 +16.9 25 +42 +51 опасность
перегрева
1001.6 944.8
12 23.05 Ю 2 10 км 8/4 600 м
[Cb cap Ac trans]
+38.6 +19.1 32 +43 +44 опасность
перегрева
1000.2 943.1 +41.6
15 23.05 нст 2 10 км гроза без осадков 5/5 600 м
[Cb cap]
+33.4 +18.2 41 +38 +38 очень
душно
1004.8 946.6
18 23.05 ЮЗ 1 4000 м мгла 5/5 600 м
[Sc]
+32.0 +20.0 49 +38 +38 очень
душно
1006.2 947.5
21 23.05 штиль 0 4000 м мгла 5/5 600 м
[Sc]
+31.8 +21.4 54 +40 +40 очень
душно
1005.3 946.7
00 24.05 ЮЗ 1 4000 м мгла 6/3 600 м
[Sc Ac trans]
+28.4 +20.8 63 +35 +35 очень
душно
1007.0 947.7
03 24.05 СЗ 2 10 км мгла 4/0
[Ci fib]
+32.2 +18.8 45 +37 +45 очень
душно
1007.5 949.0 +28.1 +41.6
06 24.05 З 2 10 км 4/0
[Ac trans]
+37.0 +19.9 37 +43 +60 опасность
перегрева
1006.5 948.8
09 24.05 ЮЗ 1 10 км 4/3 600 м
[Sc Ci fib]
+39.4 +17.5 28 +42 +55 опасность
перегрева
1002.9 945.8
12 24.05 СЗ 1 10 км 4/1 600 м
[Sc Ac trans]
+39.8 +16.8 26 +42 +43 опасность
перегрева
1001.7 944.7 +41.3
15 24.05 штиль 0 10 км 3/0
[Ci fib]
+34.4 +18.4 39 +39 +39 очень
душно
1003.4 945.4
18 24.05 нст 2 10 км 4/1 600 м
[Sc Ac trans]
+34.2 +18.1 39 +38 +38 очень
душно
1003.9 945.9
21 24.05 ЮВ 2 10 км 4/0
[Ci fib]
+32.8 +18.9 44 +38 +38 очень
душно
1003.5 945.1
00 25.05 З 2 4000 м мгла 5/3 900 м
[Cb cap Ci fib]
+30.4 +18.7 50 +36 +36 очень
душно
1004.9 946.1
03 25.05 СЗ 2 10 км 3/0
[Ci fib]
+33.2 +19.4 44 +39 +47 очень
душно
1006.0 947.7 +29.7 +41.3
06 25.05 СЗ 2 10 км 3/0
[Ci fib]
+39.2 +12.2 20 +39 +60 опасность
солнечного
удара
1004.4 947.2
09 25.05 СЗ 1 10 км 1/0
[Ci fib]
+41.6 +14.3 20 +42 +62 опасность
перегрева
1000.4 943.8
12 25.05 СВ 2 10 км 3/3 600 м
[Sc]
+41.0 +16.1 23 +42 +44 опасность
перегрева
999.4 942.8 +42.2
15 25.05 штиль 0 10 км 4/3 600 м
[Sc Ci fib]
+34.6 +17.5 36 +38 +38 очень
душно
1002.0 944.1

 

Местоположение метеостанции Хайдарабад (Телингана, Индия): широта 17.45 долгота 78.47 высота над уровнем моря 545 м.

В архиве по умолчанию представлена погода в Хайдарабаде за последнюю неделю. Архивные данные за месяц целиком и за предыдущие месяцы, начиная с января 2011 года, Вы можете получить, выбрав интересующий диапазон дат из раскрывающегося списка и нажав кнопку "Ввод!".


*Определитесь, кто Вы:
робот инопланетянин человек

Внимание! Время в таблицах - всемирное. Для получения местного времени необходимо прибавить поправку, которая равна 5.5 ч.

Смотрите также архив погоды в соседних городах и на ближайших метеорологических станциях:

Погода в Медаке (Телингана, Индия) (70 км)
Погода в Махбубнагаре (Телингана, Индия) (93 км)
Погода в Налгонде (Телингана, Индия) (97 км)
Погода в Бидаре (Карнатака, Индия) (112 км)
Погода в Ханамконде (Телингана, Индия) (133 км)
Погода в Низамабаде (Телингана, Индия) (141 км)
Погода в Рентчайнтале (Андхра-Прадеш, Индия) (152 км)
Погода в Аджере (Махараштра, Индия) (159 км)
Погода в Гулбарге (Карнатака, Индия) (172 км)
Погода в Рамагундэме (Телингана, Индия) (178 км)

Пояснения к столбцам:

Ветер - указаны скорость ветра в м/с - средняя за 10 мин, порывы в срок и между сроками (в фигурных скобках) и направление, откуда дует ветер: С - северный, СВ - северо-восточный, В - восточный, ЮВ - юго-восточный, Ю - южный, ЮЗ - юго-западный, З - западный, СЗ - северо-западный.
Видимость - горизонтальная дальность видимости в метрах или километрах. При видимости от 1 до 10 км при отсутствии осадков обычно наблюдается дымка, при ухудшении видимости до 1 км и менее - туман. В сухую погоду видимость может ухудшаться дымом, пылью или мглою.
Явления - указаны атмосферные явления, наблюдавшиеся в срок или в последний час перед сроком; фигурными скобками обозначены явления, наблюдавшиеся между сроками (за 1-3 часа до срока); квадратными скобками обозначены град или гололедные отложения с указанием их диаметра в мм.
Облачность - указаны через наклонную черту общая и нижняя облачность в баллах и высота нижней границы облаков в метрах; квадратными скобками обозначены формы облаков: Ci - перистые, Cs - перисто-слоистые, Cc - перисто-кучевые, Ac - высококучевые, As - высокослоистые, Sc - слоисто-кучевые, Ns - слоисто-дождевые, Cu - кучевые, Cb - кучево-дождевые. Подробнее классификацию облаков см. в Атласе облаков (PDF).
T - Температура воздуха - температура, измеренная на высоте 2 м над землей.
Td - Температура точки росы - температура, при понижении до которой содержащийся в воздухе водяной пар достигнет насыщения.
f - Относительная влажность воздуха - влажноcть воздуха, измеренная на высоте 2 м над землей.
Te - Эффективная температура - температура, которую ощущает одетый по сезону человек в тени. Характеристика душности погоды. При расчете учитывается влияние влажности воздуха и скорости ветра на теплоощущения человека.
Tes - Эффективная температура на солнце - температура, которую ощущает человек, с поправкой на солнечный нагрев. Характеристика знойности погоды. Зависит от высоты солнца над горизонтом, облачности и скорости ветра. Ночью, в пасмурную погоду, а также при ветре 12 м/с и более поправка равна нулю.
P - Атмосферное давление - приведенное к уровню моря атмосферное давление.
Po - Атмосферное давление - измеренное на уровне метеостанции атмосферное давление.
Tmin - Минимальная температура - минимум температуры воздуха на высоте 2 м над землей.
Tmax - Максимальная температура - максимум температуры воздуха на высоте 2 м над землей.
R - Количество осадков - Количество выпавших осадков за период времени, мм. При наведении курсора мыши на число - период времени, за который выпало указанное количество осадков.
R24 - Количество осадков - Количество выпавших осадков за 24 часа, мм.
S - Снежный покров - Высота снежного покрова, см. При наведении курсора мыши на число - состояние снежного покрова и степень покрытия местности в баллах.